Terug naar catalogus

STARLINK-34647

ActiefCommunicatieVLEO
NORAD 64904·PAYLOAD·🇺🇸 United States

Gelanceerd Jul 26, 2025 vanaf Cape Canaveral Space Force Station

Loading…

Volgende Passages (komende 24 uur)

TLE

VersSource: CelesTrak SupGP

Epoch: Sep 15, 2026, 04:05 UTC

1 64904C 25157A   26258.17062500  .00033165  00000+0  98025-3 0  2589
2 64904  53.1574 182.4491 0001288  68.2441  87.3468 15.34361678    14

Volg STARLINK-34647 in realtime met AllMySat

Download on the App Store